Wind_Speed
15 15 15 14 14 14 14 14 14 15 15 15 15 15 15 15 14 14 14 14 13 13 13 13 14 14 14 13 13 13 13 12 12 12 11 11 10 10 9 9 9 9 9 9
16 17 16 15 15 14 14 14 15 16 16 16 16 16 16 16 15 15 15 15 14 13 14 15 14 14 14 13 14 14 13 13 13 13 13 12 11 10 9 9 10 10 10 10
17 18 17 16 16 16 15 15 16 17 17 16 15 15 16 16 16 16 16 15 15 15 14 15 15 15 14 14 13 13 12 13 13 14 13 11 11 10 10 10 10 11 11 11
18 18 18 17 17 17 17 17 17 17 16 16 15 13 14 16 16 16 16 15 15 15 15 15 15 15 14 14 14 13 13 13 13 13 13 12 11 10 11 11 11 11 11 11
17 17 18 18 18 18 18 18 17 17 17 16 15 14 15 16 16 16 16 16 16 15 14 15 15 14 13 13 13 13 13 14 15 15 14 13 12 12 12 12 12 12 12 12
17 17 18 18 19 19 18 18 18 17 17 17 16 16 16 17 16 16 16 16 16 15 15 15 15 14 14 13 13 13 13 14 15 15 15 14 14 13 13 13 13 13 13 13
18 18 18 19 19 19 19 18 17 16 17 17 18 18 18 16 16 16 16 16 16 16 16 16 16 15 14 14 14 14 14 14 15 16 16 15 15 15 15 15 14 14 15 15
19 19 19 19 19 20 19 18 18 17 17 17 19 19 17 16 15 15 16 16 17 17 17 17 17 16 15 16 16 16 16 15 15 16 16 16 16 16 15 15 15 15 16 17
20 20 20 20 20 20 20 19 19 19 18 18 19 20 18 16 16 16 17 18 18 18 18 18 19 18 17 17 17 16 16 16 16 16 17 17 17 17 17 17 16 17 17 18
21 21 21 21 21 21 21 20 20 19 19 18 19 20 19 17 17 17 18 19 19 19 19 20 20 20 20 18 18 17 17 17 17 17 18 18 18 19 19 18 18 18 18 19
22 22 22 22 23 22 22 22 22 21 21 20 19 21 21 19 19 18 19 19 19 19 19 20 20 20 20 19 18 18 18 19 19 18 19 19 20 20 21 20 20 20 20 21
23 23 23 24 23 23 24 24 23 23 22 22 21 22 22 21 20 19 19 20 20 20 20 20 20 20 20 20 20 20 20 20 21 21 20 21 21 22 22 22 22 22 22 23
24 24 24 24 24 25 26 26 25 24 24 24 23 23 23 22 21 21 21 21 21 21 21 21 21 21 21 21 22 22 22 22 22 22 22 23 23 23 23 24 24 23 23 23
25 25 25 24 25 26 26 27 26 25 25 25 25 25 25 23 22 23 23 23 23 22 22 22 21 21 22 22 22 23 23 23 24 23 23 23 24 24 24 25 25 25 25 24
26 26 26 26 26 27 27 27 27 27 26 26 26 26 25 25 24 24 24 24 23 23 23 23 22 23 23 23 24 24 25 25 25 25 25 25 25 25 26 26 27 27 27 26
26 26 26 27 27 27 27 27 28 28 27 27 27 26 25 25 25 25 25 24 24 24 24 24 24 23 24 24 25 26 26 26 26 26 27 26 26 27 28 28 28 28 28 27
26 26 26 26 26 27 28 28 28 28 28 28 27 27 26 27 26 26 26 26 26 26 26 25 25 25 25 26 26 26 27 26 26 26 26 27 28 28 29 29 29 29 29 28
24 25 25 26 26 27 27 26 27 28 28 28 27 28 27 27 26 26 26 26 27 27 27 27 26 26 26 27 27 28 27 27 27 27 27 27 27 28 28 29 29 28 28 29
24 24 25 26 27 27 26 26 26 27 28 27 27 27 27 26 26 26 26 26 27 27 28 28 28 28 28 29 29 28 28 28 28 28 28 28 29 29 29 28 27 27 28 29
24 25 26 26 27 28 28 26 26 27 29 26 26 27 27 26 26 26 26 26 28 28 28 29 29 30 30 30 30 30 30 29 29 29 29 29 29 29 29 28 28 28 28 29
24 25 25 26 27 28 27 26 26 27 28 27 26 27 27 25 24 25 26 26 27 28 28 29 30 31 31 31 30 30 30 30 30 30 30 30 30 30 30 29 29 30 30 30
25 25 26 26 27 28 27 26 26 27 27 27 26 26 26 24 24 24 25 26 26 27 28 29 30 31 31 31 30 30 30 30 30 31 31 30 31 31 31 30 30 30 29 30
25 26 26 27 27 27 26 26 26 26 26 26 26 25 25 25 25 25 26 27 27 28 29 29 30 30 30 30 30 30 30 31 31 31 31 32 31 31 31 30 30 30 29 29
24 25 25 26 26 27 26 26 26 26 25 25 25 25 26 26 26 26 26 27 28 28 28 29 30 30 30 29 29 30 30 30 30 31 31 30 31 31 31 30 31 31 31 30
24 25 25 25 25 26 26 26 26 26 26 26 25 26 26 27 27 27 27 27 29 29 28 29 30 30 29 28 28 29 30 30 30 30 30 30 30 30 30 30 30 31 31 30
24 24 24 25 25 25 26 26 26 27 26 26 26 27 27 27 26 26 27 27 28 28 28 28 29 28 28 28 27 28 29 30 29 29 30 30 30 30 30 30 31 30 30 30
Wind_Direction
234 234 237 239 241 240 243 244 246 252 256 256 259 260 262 262 262 261 263 266 268 269 267 270 273 275 272 267 267 269 268 262 261 258 256 258 263 264 267 270 269 267 269 266
236 238 241 244 245 244 247 251 253 257 258 261 262 260 259 261 264 264 264 265 267 268 267 268 271 271 266 265 266 264 261 259 257 257 255 258 264 265 266 272 270 268 268 270
237 238 242 245 247 249 250 252 254 259 263 264 265 262 259 260 262 264 264 266 267 268 267 268 268 269 263 259 262 264 262 261 259 260 258 258 260 264 271 274 273 270 265 271
240 242 245 247 248 248 250 251 254 258 263 264 264 263 262 260 262 262 263 266 269 268 266 266 266 268 262 257 256 257 258 258 258 258 261 262 259 265 270 273 274 269 269 272
244 244 247 248 248 248 250 251 254 258 260 260 260 261 261 263 263 262 263 265 266 267 266 267 266 264 260 255 254 255 257 259 257 257 259 261 262 261 267 270 273 271 269 271
244 247 248 249 249 249 251 253 256 258 260 261 259 262 264 265 264 261 261 261 262 264 265 266 265 262 258 255 257 259 260 263 260 259 260 260 263 263 268 274 271 269 270 272
246 248 250 250 250 251 251 253 256 259 260 261 263 262 264 264 259 257 258 257 259 261 263 263 261 258 255 254 255 257 259 262 261 260 261 259 261 262 265 272 272 267 269 273
247 251 251 251 251 253 253 250 250 253 258 261 266 264 266 264 257 255 257 257 258 261 263 263 260 256 253 253 254 256 258 261 262 259 258 260 260 261 264 266 267 268 269 271
246 250 251 250 250 250 250 251 252 256 261 264 266 266 264 263 259 258 260 261 260 260 259 260 260 258 256 253 253 254 256 257 258 257 257 258 260 264 266 266 267 270 270 272
245 248 250 249 248 248 250 252 252 255 258 261 266 268 267 264 262 263 263 263 261 259 258 260 259 257 257 255 253 254 255 257 259 259 257 258 262 264 267 268 269 271 273 274
246 248 250 250 248 251 251 251 253 254 256 259 263 265 267 265 263 264 264 264 264 262 261 262 261 258 255 253 254 255 256 258 259 260 258 260 262 265 267 269 271 272 273 274
245 247 250 252 251 250 250 252 254 254 257 260 261 265 268 265 264 264 263 264 264 263 262 260 259 259 258 256 256 257 259 261 261 261 261 261 263 266 267 269 270 272 272 272
246 248 250 253 254 253 252 253 253 254 257 259 260 265 268 267 263 263 264 264 264 263 261 259 258 257 258 259 259 259 260 263 264 264 265 263 264 266 268 268 269 271 273 273
248 248 248 250 254 255 255 254 254 253 255 258 261 264 267 268 266 262 262 262 264 264 262 261 258 256 257 258 261 262 262 265 267 268 270 267 264 265 268 268 269 271 271 272
250 251 250 250 251 255 256 255 254 253 254 256 260 262 264 264 262 260 260 261 261 261 261 259 258 257 258 258 260 261 262 265 266 268 270 268 266 266 268 268 269 270 269 270
250 252 253 254 254 254 254 255 256 255 255 257 259 260 261 261 260 260 261 261 260 260 260 260 259 258 258 259 259 261 263 265 266 268 270 268 266 267 269 269 269 269 268 268
252 253 255 256 257 256 256 257 256 256 256 258 260 262 260 260 259 259 260 261 259 260 260 259 259 258 258 258 259 261 264 267 268 270 270 271 270 268 269 268 268 267 266 266
252 252 253 255 257 257 260 260 257 258 257 257 258 259 259 260 260 260 260 261 260 260 259 259 258 259 259 260 261 262 265 268 269 270 270 271 274 272 271 269 267 265 264 265
253 254 254 256 258 261 261 261 259 259 259 260 259 259 260 261 261 260 261 261 260 261 259 258 258 259 260 263 265 264 266 268 268 269 271 272 275 275 273 273 269 267 266 266
253 254 256 258 259 262 263 263 262 262 262 262 261 260 259 260 260 261 260 260 259 259 258 258 258 260 262 263 264 264 266 268 270 271 270 272 273 274 272 272 271 269 268 268
255 256 258 259 260 262 264 264 263 261 262 264 263 262 262 261 260 260 260 260 260 259 259 258 259 260 261 262 263 264 267 269 270 270 270 272 274 274 272 270 270 269 268 268
258 259 259 260 260 263 266 264 263 264 263 263 263 262 261 261 261 261 261 260 260 261 261 260 261 262 263 264 263 263 266 268 269 271 272 273 274 274 271 270 269 268 267 267
258 259 260 260 262 265 265 265 264 264 263 263 262 262 262 262 261 261 260 260 261 263 262 261 261 262 263 264 263 263 264 266 269 272 273 274 274 276 274 272 270 268 268 268
258 259 261 262 262 263 264 264 264 264 264 263 262 262 263 262 260 259 259 258 260 262 262 261 261 262 262 261 261 263 265 267 270 273 275 276 277 278 275 273 272 271 270 268
261 261 261 263 264 265 264 263 263 262 262 262 261 262 263 261 259 260 261 260 262 262 263 262 262 261 261 260 261 264 268 270 272 274 275 277 278 277 274 272 273 273 271 268
261 262 262 264 266 266 264 263 262 261 262 262 262 261 261 261 260 260 261 262 262 262 261 260 261 262 263 261 263 266 268 270 273 276 276 276 277 277 276 275 273 272 270 268
Height
5861 5864 5866 5867 5869 5871 5872 5873 5874 5874 5874 5875 5876 5876 5876 5876 5877 5877 5877 5877 5877 5877 5876 5876 5875 5875 5875 5874 5874 5874 5874 5873 5873 5873 5873 5873 5873 5873 5873 5873 5873 5872 5872 5872
5859 5861 5863 5864 5865 5867 5868 5870 5870 5870 5870 5871 5872 5872 5872 5872 5873 5873 5873 5873 5874 5873 5873 5873 5872 5872 5872 5871 5871 5871 5871 5870 5870 5870 5870 5870 5870 5871 5871 5871 5870 5870 5870 5870
5855 5858 5858 5860 5861 5863 5864 5866 5867 5867 5867 5867 5868 5869 5869 5869 5869 5869 5869 5870 5870 5870 5870 5869 5869 5868 5868 5868 5868 5868 5868 5867 5867 5867 5868 5868 5868 5868 5868 5868 5868 5867 5867 5867
5850 5852 5854 5856 5857 5858 5860 5862 5862 5862 5863 5864 5865 5866 5866 5865 5865 5866 5866 5866 5866 5866 5866 5865 5865 5865 5864 5864 5864 5864 5864 5864 5864 5864 5865 5865 5865 5865 5865 5865 5864 5864 5864 5864
5847 5848 5850 5851 5853 5854 5856 5857 5858 5858 5859 5860 5861 5862 5863 5861 5861 5862 5862 5862 5862 5862 5862 5861 5861 5861 5861 5861 5861 5861 5861 5861 5861 5861 5862 5862 5862 5862 5862 5862 5861 5861 5861 5861
5843 5844 5845 5847 5848 5850 5851 5853 5853 5854 5855 5856 5857 5858 5858 5858 5857 5858 5858 5858 5857 5858 5858 5857 5857 5857 5858 5858 5858 5858 5858 5858 5857 5858 5858 5859 5859 5859 5859 5858 5858 5858 5858 5858
5838 5840 5841 5842 5844 5845 5847 5849 5850 5851 5851 5853 5853 5852 5853 5853 5853 5853 5853 5853 5853 5854 5854 5853 5853 5854 5854 5854 5855 5855 5855 5855 5854 5855 5855 5855 5855 5855 5855 5855 5855 5855 5855 5855
5834 5836 5836 5838 5839 5840 5842 5844 5847 5848 5849 5849 5847 5847 5849 5848 5848 5848 5848 5849 5849 5849 5849 5850 5850 5850 5850 5851 5851 5851 5851 5851 5851 5851 5851 5851 5851 5851 5851 5852 5851 5851 5851 5851
5830 5831 5832 5833 5834 5836 5837 5838 5841 5842 5842 5843 5843 5842 5843 5843 5843 5843 5844 5844 5845 5845 5845 5845 5845 5846 5846 5846 5847 5847 5848 5848 5848 5848 5847 5847 5848 5848 5848 5847 5847 5847 5847 5847
5823 5825 5826 5827 5829 5830 5832 5834 5835 5836 5837 5838 5839 5838 5839 5838 5839 5839 5839 5839 5839 5840 5840 5840 5840 5841 5842 5842 5842 5843 5844 5844 5844 5844 5844 5844 5844 5844 5844 5843 5843 5842 5842 5842
5817 5819 5821 5822 5823 5825 5827 5828 5828 5830 5832 5833 5834 5836 5833 5833 5834 5834 5834 5834 5834 5834 5835 5835 5835 5836 5836 5837 5838 5838 5839 5839 5839 5839 5839 5839 5840 5839 5839 5839 5838 5838 5837 5837
5811 5813 5814 5816 5817 5819 5820 5821 5823 5824 5825 5825 5827 5830 5827 5827 5828 5828 5828 5828 5829 5829 5829 5830 5830 5831 5831 5832 5832 5833 5833 5834 5834 5834 5834 5834 5834 5834 5834 5834 5833 5832 5832 5831
5804 5806 5808 5809 5812 5812 5812 5814 5816 5817 5818 5818 5820 5824 5821 5821 5822 5822 5823 5823 5823 5823 5824 5824 5825 5825 5825 5826 5827 5827 5828 5828 5828 5828 5828 5828 5828 5828 5828 5828 5827 5827 5826 5825
5797 5799 5802 5804 5804 5804 5805 5807 5808 5810 5811 5812 5813 5814 5815 5815 5815 5816 5816 5817 5817 5817 5818 5818 5819 5819 5820 5820 5820 5821 5821 5822 5822 5822 5822 5822 5822 5822 5822 5821 5821 5820 5820 5819
5789 5791 5793 5795 5796 5797 5798 5799 5800 5801 5803 5804 5806 5806 5807 5808 5808 5809 5809 5810 5810 5811 5811 5812 5812 5813 5813 5814 5814 5814 5815 5815 5815 5815 5815 5815 5815 5815 5815 5814 5814 5814 5813 5813
5782 5784 5785 5786 5788 5788 5789 5791 5792 5793 5795 5796 5797 5798 5799 5800 5800 5801 5802 5803 5803 5804 5805 5805 5806 5806 5806 5807 5807 5808 5808 5808 5808 5808 5808 5807 5807 5807 5807 5807 5806 5806 5806 5806
5774 5776 5778 5779 5780 5780 5781 5783 5784 5785 5786 5788 5788 5790 5791 5792 5793 5793 5794 5795 5796 5796 5797 5798 5798 5799 5799 5800 5800 5800 5801 5801 5801 5800 5800 5800 5800 5799 5799 5798 5798 5798 5798 5798
5767 5769 5770 5771 5772 5772 5776 5776 5776 5777 5778 5779 5780 5781 5782 5783 5784 5785 5786 5787 5788 5788 5789 5789 5790 5791 5792 5792 5792 5793 5793 5793 5793 5793 5792 5792 5791 5791 5790 5790 5789 5789 5790 5790
5760 5761 5762 5764 5764 5764 5767 5767 5768 5768 5769 5771 5772 5773 5774 5775 5776 5777 5778 5778 5779 5780 5780 5781 5782 5782 5783 5784 5784 5785 5785 5785 5785 5785 5784 5784 5783 5782 5782 5781 5781 5781 5781 5781
5752 5753 5755 5756 5756 5757 5759 5760 5760 5761 5760 5762 5763 5764 5765 5766 5767 5769 5769 5770 5770 5771 5772 5772 5773 5774 5774 5775 5776 5776 5776 5776 5776 5776 5776 5775 5775 5774 5773 5773 5773 5772 5772 5772
5745 5746 5747 5747 5748 5748 5750 5751 5751 5753 5753 5754 5754 5755 5756 5757 5759 5760 5760 5761 5762 5762 5763 5764 5764 5765 5765 5766 5766 5767 5767 5767 5767 5767 5767 5766 5766 5765 5764 5764 5764 5764 5764 5764
5737 5738 5739 5739 5740 5742 5741 5742 5743 5744 5744 5745 5746 5747 5748 5749 5750 5751 5752 5752 5753 5754 5755 5755 5755 5756 5756 5756 5757 5758 5758 5758 5758 5758 5758 5757 5756 5756 5755 5755 5755 5754 5754 5754
5729 5731 5731 5732 5733 5733 5732 5733 5734 5734 5735 5736 5737 5738 5739 5741 5742 5743 5743 5744 5745 5745 5746 5746 5746 5746 5747 5747 5748 5749 5749 5749 5749 5749 5749 5748 5747 5746 5746 5746 5745 5745 5745 5745
5721 5722 5722 5723 5723 5723 5723 5724 5725 5726 5727 5728 5729 5730 5731 5732 5733 5734 5734 5735 5736 5736 5736 5737 5737 5738 5738 5738 5739 5739 5740 5740 5740 5740 5740 5739 5738 5737 5737 5736 5736 5736 5735 5735
5713 5714 5714 5714 5715 5714 5715 5716 5717 5717 5718 5719 5720 5722 5722 5723 5724 5725 5726 5726 5727 5727 5727 5728 5728 5729 5729 5730 5730 5730 5730 5731 5731 5731 5730 5730 5729 5728 5727 5727 5726 5726 5726 5725
5705 5706 5706 5706 5707 5706 5707 5708 5708 5709 5710 5711 5712 5713 5714 5715 5716 5716 5717 5717 5718 5718 5719 5719 5720 5720 5720 5721 5721 5722 5722 5722 5722 5722 5721 5720 5719 5719 5718 5717 5716 5716 5716 5716